Location: Dana
(41.8364°N, 106.7042°W)
Time: 20:39:57
(UTC+00:00)

Tiros 1 despin weight - Pass Details

Date: 18 May 2026
Orbit: 555 x 591 km, 48.2° (Epoch: 1 June)

Event Time Altitude Azimuth Distance (km) Brightness Sun altitude
Rises 12:05:02 0° 258° (WSW) 2,760 ? 2.7°
Reaches altitude 10° 12:07:21 10° 264° (W) 1,859 ? 3.1°
Maximum altitude 12:11:30 52° 341° (NNW) 703 ? 3.8°
Drops below altitude 10° 12:15:37 10° 58° (ENE) 1,845 ? 4.5°
Sets 12:17:55 0° 64° (ENE) 2,738 ? 4.9°
